UA1ZBE-13 Weather Reports


time (UTC)temp
C
wind
direction
speed
KPH
gust
KPH
rain 1hr
cm
rain 24hr
cm
rain mn
cm
humidity
%
barometer
mb
20260508141817 16 0.0 0.0 0.00 0.00 0.00 1001.9
20260508140817 12 0.0 0.0 0.00 0.00 0.00 1001.8
20260508135817 16 0.0 0.0 0.00 0.00 0.00 1001.8
20260508134816 14 0.0 0.0 0.00 0.00 0.00 1001.7
20260508133816 13 0.0 0.0 0.00 0.00 0.00 1001.6
20260508132816 12 0.0 0.0 0.00 0.00 0.00 1001.5
20260508131816 11 0.0 0.0 0.00 0.00 0.00 1001.4
20260508130816 10 0.0 0.0 0.00 0.00 0.00 1001.2
20260508125815 10 0.0 0.0 0.00 0.00 0.00 1001.2
20260508124815 9 0.0 0.0 0.00 0.00 0.00 1001.2
20260508123815 9 0.0 0.0 0.00 0.00 0.00 1001.1
20260508122815 9 0.0 0.0 0.00 0.00 0.00 1001.1
20260508121814 9 0.0 0.0 0.00 0.00 0.00 1001.1
20260508120814 10 0.0 0.0 0.00 0.00 0.00 1001.1
20260508115814 10 0.0 0.0 0.00 0.00 0.00 1000.9
20260508114814 10 0.0 0.0 0.00 0.00 0.00 1001.0
20260508113814 10 0.0 0.0 0.00 0.00 0.00 1001.1
20260508112813 10 0.0 0.0 0.00 0.00 0.00 1001.2
20260508111813 11 0.0 0.0 0.00 0.00 0.00 1001.0
20260508110813 11 0.0 0.0 0.00 0.00 0.00 1000.9
20260508105813 10 0.0 0.0 0.00 0.00 0.00 1000.8
20260508104812 10 0.0 0.0 0.00 0.00 0.00 1000.8
20260508103812 10 0.0 0.0 0.00 0.00 0.00 1000.6
20260508102812 10 0.0 0.0 0.00 0.00 0.00 1000.6
20260508101812 9 0.0 0.0 0.00 0.00 0.00 1000.2
20260508100811 7 0.0 0.0 0.00 0.00 0.00 1000.0
20260508095811 7 0.0 0.0 0.00 0.00 0.00 1000.0
20260508094811 8 0.0 0.0 0.00 0.00 0.00 999.9
20260508093811 8 0.0 0.0 0.00 0.00 0.00 999.9
20260508092811 7 0.0 0.0 0.00 0.00 0.00 999.7
20260508091810 7 0.0 0.0 0.00 0.00 0.00 999.4
20260508090810 6 0.0 0.0 0.00 0.00 0.00 999.3
20260508085810 6 0.0 0.0 0.00 0.00 0.00 999.3
20260508084810 6 0.0 0.0 0.00 0.00 0.00 999.3
20260508083810 7 0.0 0.0 0.00 0.00 0.00 999.1
20260508082809 7 0.0 0.0 0.00 0.00 0.00 999.0
20260508081809 7 0.0 0.0 0.00 0.00 0.00 998.8
20260508080809 6 0.0 0.0 0.00 0.00 0.00 998.8
20260508075809 6 0.0 0.0 0.00 0.00 0.00 998.7
20260508074808 6 0.0 0.0 0.00 0.00 0.00 998.5
20260508073808 6 0.0 0.0 0.00 0.00 0.00 998.6
20260508072808 6 0.0 0.0 0.00 0.00 0.00 998.3
20260508071808 5 0.0 0.0 0.00 0.00 0.00 998.3
20260508070807 5 0.0 0.0 0.00 0.00 0.00 998.2
20260508065807 5 0.0 0.0 0.00 0.00 0.00 998.0
20260508064807 4 0.0 0.0 0.00 0.00 0.00 998.0
20260508063807 4 0.0 0.0 0.00 0.00 0.00 997.9
20260508062807 4 0.0 0.0 0.00 0.00 0.00 997.8
20260508061806 3 0.0 0.0 0.00 0.00 0.00 997.7
20260508060806 3 0.0 0.0 0.00 0.00 0.00 997.7
20260508055806 3 0.0 0.0 0.00 0.00 0.00 997.6
20260508054806 3 0.0 0.0 0.00 0.00 0.00 997.5
20260508053806 3 0.0 0.0 0.00 0.00 0.00 997.5
20260508052805 3 0.0 0.0 0.00 0.00 0.00 997.4
20260508051805 2 0.0 0.0 0.00 0.00 0.00 997.3
20260508050805 2 0.0 0.0 0.00 0.00 0.00 997.1
20260508045805 2 0.0 0.0 0.00 0.00 0.00 997.1
20260508044805 2 0.0 0.0 0.00 0.00 0.00 997.1
20260508043804 2 0.0 0.0 0.00 0.00 0.00 996.9
20260508042804 2 0.0 0.0 0.00 0.00 0.00 996.8
20260508041804 2 0.0 0.0 0.00 0.00 0.00 996.7
20260508040804 2 0.0 0.0 0.00 0.00 0.00 996.8
20260508035803 2 0.0 0.0 0.00 0.00 0.00 996.7
20260508034803 2 0.0 0.0 0.00 0.00 0.00 996.6
20260508033803 1 0.0 0.0 0.00 0.00 0.00 996.6
20260508032803 1 0.0 0.0 0.00 0.00 0.00 996.5
20260508031802 1 0.0 0.0 0.00 0.00 0.00 996.4
20260508030802 1 0.0 0.0 0.00 0.00 0.00 996.3
20260508025802 1 0.0 0.0 0.00 0.00 0.00 996.2
20260508024802 1 0.0 0.0 0.00 0.00 0.00 996.2
20260508023801 1 0.0 0.0 0.00 0.00 0.00 996.2
20260508022801 1 0.0 0.0 0.00 0.00 0.00 996.0
20260508021801 1 0.0 0.0 0.00 0.00 0.00 996.0
20260508020801 1 0.0 0.0 0.00 0.00 0.00 995.9
20260508015801 1 0.0 0.0 0.00 0.00 0.00 995.8
20260508014800 1 0.0 0.0 0.00 0.00 0.00 995.8
20260508013800 1 0.0 0.0 0.00 0.00 0.00 995.8
20260508012800 1 0.0 0.0 0.00 0.00 0.00 995.6
20260508011800 1 0.0 0.0 0.00 0.00 0.00 995.5
20260508010759 1 0.0 0.0 0.00 0.00 0.00 995.3
20260508005759 1 0.0 0.0 0.00 0.00 0.00 995.2
20260508004759 1 0.0 0.0 0.00 0.00 0.00 995.2
20260508003759 1 0.0 0.0 0.00 0.00 0.00 995.1
20260508002758 1 0.0 0.0 0.00 0.00 0.00 995.1
20260508001758 1 0.0 0.0 0.00 0.00 0.00 995.0
20260508000758 1 0.0 0.0 0.00 0.00 0.00 994.9
20260507235758 1 0.0 0.0 0.00 0.00 0.00 994.8
20260507234758 1 0.0 0.0 0.00 0.00 0.00 994.7
20260507233757 1 0.0 0.0 0.00 0.00 0.00 994.7
20260507232757 1 0.0 0.0 0.00 0.00 0.00 994.7
20260507231757 1 0.0 0.0 0.00 0.00 0.00 994.6
20260507230757 1 0.0 0.0 0.00 0.00 0.00 994.5
20260507225756 1 0.0 0.0 0.00 0.00 0.00 994.6
20260507224756 1 0.0 0.0 0.00 0.00 0.00 994.4
20260507223756 2 0.0 0.0 0.00 0.00 0.00 994.4
20260507222756 2 0.0 0.0 0.00 0.00 0.00 994.4
20260507221755 2 0.0 0.0 0.00 0.00 0.00 994.2
20260507220755 2 0.0 0.0 0.00 0.00 0.00 994.1
20260507215755 2 0.0 0.0 0.00 0.00 0.00 994.1
20260507214755 2 0.0 0.0 0.00 0.00 0.00 994.0
20260507213755 2 0.0 0.0 0.00 0.00 0.00 994.0
20260507212754 2 0.0 0.0 0.00 0.00 0.00 993.9
20260507211754 2 0.0 0.0 0.00 0.00 0.00 994.0
20260507210754 3 0.0 0.0 0.00 0.00 0.00 994.0
20260507205754 3 0.0 0.0 0.00 0.00 0.00 993.9
20260507204753 3 0.0 0.0 0.00 0.00 0.00 994.0
20260507203753 3 0.0 0.0 0.00 0.00 0.00 993.9
20260507202753 3 0.0 0.0 0.00 0.00 0.00 993.8
20260507201753 4 0.0 0.0 0.00 0.00 0.00 993.9
20260507200753 4 0.0 0.0 0.00 0.00 0.00 993.8
20260507195752 4 0.0 0.0 0.00 0.00 0.00 993.8
20260507194752 4 0.0 0.0 0.00 0.00 0.00 993.7
20260507193752 4 0.0 0.0 0.00 0.00 0.00 993.6
20260507192752 5 0.0 0.0 0.00 0.00 0.00 993.6
20260507191751 5 0.0 0.0 0.00 0.00 0.00 993.5
20260507190751 5 0.0 0.0 0.00 0.00 0.00 993.5
20260507185751 5 0.0 0.0 0.00 0.00 0.00 993.4
20260507184751 5 0.0 0.0 0.00 0.00 0.00 993.4
20260507183751 5 0.0 0.0 0.00 0.00 0.00 993.4
20260507182750 5 0.0 0.0 0.00 0.00 0.00 993.4
20260507181750 5 0.0 0.0 0.00 0.00 0.00 993.3
20260507180750 6 0.0 0.0 0.00 0.00 0.00 993.3
20260507175750 6 0.0 0.0 0.00 0.00 0.00 993.3
20260507174749 7 0.0 0.0 0.00 0.00 0.00 993.2
20260507173749 7 0.0 0.0 0.00 0.00 0.00 993.2
20260507172749 7 0.0 0.0 0.00 0.00 0.00 993.2
20260507171749 7 0.0 0.0 0.00 0.00 0.00 993.2
20260507170749 8 0.0 0.0 0.00 0.00 0.00 993.3
20260507165748 11 0.0 0.0 0.00 0.00 0.00 993.4
20260507164748 10 0.0 0.0 0.00 0.00 0.00 993.5
20260507163748 13 0.0 0.0 0.00 0.00 0.00 993.5
20260507162748 12 0.0 0.0 0.00 0.00 0.00 993.4
20260507161748 11 0.0 0.0 0.00 0.00 0.00 993.4
20260507160748 12 0.0 0.0 0.00 0.00 0.00 993.4
20260507155747 11 0.0 0.0 0.00 0.00 0.00 993.3
20260507154747 15 0.0 0.0 0.00 0.00 0.00 993.5
20260507153747 20 0.0 0.0 0.00 0.00 0.00 993.6
20260507152747 19 0.0 0.0 0.00 0.00 0.00 993.6
20260507151746 18 0.0 0.0 0.00 0.00 0.00 993.3
20260507150747 12 0.0 0.0 0.00 0.00 0.00 992.9
20260507145746 5 0.0 0.0 0.00 0.00 0.00 992.8
20260507144746 4 0.0 0.0 0.00 0.00 0.00 992.8
20260507143745 4 0.0 0.0 0.00 0.00 0.00 992.9
20260507142745 4 0.0 0.0 0.00 0.00 0.00 992.9